TimeAST,TemperatureF,Dew PointF,Humidity,Sea Level PressureIn,VisibilityMPH,Wind Direction,Wind SpeedMPH,Gust SpeedMPH,PrecipitationIn,Events,Conditions,WindDirDegrees,DateUTC
12:00 AM,30.2,28.4,93,30.19,15.0,NNE,15.0,-,N/A,,Mostly Cloudy,30,2013-03-06 04:00:00
1:00 AM,32.0,28.4,87,30.21,15.0,NE,17.3,-,N/A,,Mostly Cloudy,40,2013-03-06 05:00:00
1:11 AM,32.0,28.4,87,30.21,15.0,NE,13.8,20.7,N/A,Snow,Light Snow Showers,40,2013-03-06 05:11:00
2:00 AM,31,29,88,30.22,15,NE,13.8,,,Snow,Light Snow Showers,40,2013-03-06 06:00:00
2:00 AM,32.0,28.4,87,30.22,15.0,NNE,15.0,-,N/A,Snow,Light Snow Showers,30,2013-03-06 06:00:00
3:00 AM,32.0,28.4,87,30.23,15.0,NE,16.1,-,N/A,Snow,Light Snow Showers,40,2013-03-06 07:00:00
4:00 AM,32.0,28.4,87,30.25,15.0,NE,11.5,-,N/A,,Mostly Cloudy,50,2013-03-06 08:00:00
5:00 AM,32.0,26.6,80,30.27,15.0,NE,16.1,-,N/A,,Mostly Cloudy,50,2013-03-06 09:00:00
6:00 AM,30.2,26.6,86,30.30,15.0,NE,13.8,-,N/A,,Overcast,40,2013-03-06 10:00:00
7:00 AM,30.2,26.6,86,30.33,15.0,NE,13.8,-,N/A,,Overcast,50,2013-03-06 11:00:00
8:00 AM,31,26,72,30.35,15,NE,15.0,,,,Partly Cloudy,50,2013-03-06 12:00:00
9:00 AM,32.0,24.8,75,30.36,15.0,NE,16.1,21.9,N/A,,Overcast,50,2013-03-06 13:00:00
10:00 AM,32.0,24.8,75,30.37,15.0,ENE,17.3,-,N/A,,Overcast,70,2013-03-06 14:00:00
11:00 AM,33.8,23.0,65,30.37,15.0,ENE,16.1,-,N/A,,Overcast,60,2013-03-06 15:00:00
12:00 PM,33.8,21.2,60,30.37,15.0,ENE,19.6,-,N/A,,Overcast,60,2013-03-06 16:00:00
1:00 PM,33.8,23.0,65,30.35,15.0,NE,20.7,-,N/A,,Mostly Cloudy,50,2013-03-06 17:00:00
2:00 PM,33,24,59,30.36,15,NE,19.6,,,,Overcast,40,2013-03-06 18:00:00
2:00 PM,33.8,24.8,70,30.36,15.0,NE,19.6,25.3,N/A,,Overcast,50,2013-03-06 18:00:00
3:00 PM,32.0,24.8,75,30.38,15.0,NE,16.1,21.9,N/A,,Overcast,40,2013-03-06 19:00:00
4:00 PM,32.0,24.8,75,30.39,15.0,NE,16.1,23.0,N/A,,Overcast,50,2013-03-06 20:00:00
5:00 PM,32.0,24.8,75,30.41,15.0,NE,15.0,20.7,N/A,,Overcast,50,2013-03-06 21:00:00
6:00 PM,30.2,24.8,80,30.42,15.0,NE,12.7,18.4,N/A,,Overcast,40,2013-03-06 22:00:00
7:00 PM,30.2,24.8,80,30.43,15.0,NE,11.5,-,N/A,,Overcast,50,2013-03-06 23:00:00
8:00 PM,30,26,79,30.43,15,NE,10.4,,,,Overcast,50,2013-03-07 00:00:00
8:00 PM,30.2,26.6,86,30.43,15.0,NE,10.4,-,N/A,,Overcast,50,2013-03-07 00:00:00
9:00 PM,30.2,24.8,80,30.43,15.0,ENE,8.1,-,N/A,,Overcast,60,2013-03-07 01:00:00
10:00 PM,30.2,24.8,80,30.43,15.0,ENE,9.2,-,N/A,,Overcast,60,2013-03-07 02:00:00
11:00 PM,30.2,24.8,80,30.42,15.0,NE,9.2,-,N/A,,Overcast,50,2013-03-07 03:00:00